This demonstration page uses our WeatherBlox Daily Observations layout. Learn more.

Left ArrowRight Arrow

Hourly Observations for November 22, 2018

Temp ( °F °C ) Dew Point ( °F °C ) Humidity (%) Winds ( mph kmh ) Pressure ( in mb ) Visibility ( mi km ) Precip ( " mm )
12:57 am 00:57 Clear 38 3.3 27 -2.8 65 65 SW 10 17 30.10 1019 10 16 0.00 0.00
1:57 am 01:57 Clear 36 2.2 26 -3.3 67 67 WSW 6 9 30.09 1019 10 16 0.00 0.00
2:57 am 02:57 Clear 37 2.8 25 -3.9 62 62 SW 7 11 30.08 1019 10 16 0.00 0.00
3:57 am 03:57 Clear 35 1.7 25 -3.9 67 67 WSW 6 9 30.07 1018 10 16 0.00 0.00
4:57 am 04:57 Clear 34 1.1 25 -3.9 70 70 WSW 6 9 30.08 1019 10 16 0.00 0.00
6:57 am 06:57 Clear 31 -0.6 25 -3.9 79 79 WSW 5 7 30.09 1019 10 16 0.00 0.00
7:57 am 07:57 Sunny 32 0 25 -3.9 75 75 SW 9 15 30.09 1019 10 16 0.00 0.00
8:57 am 08:57 Sunny 37 2.8 27 -2.8 67 67 SW 7 11 30.06 1018 10 16 0.00 0.00
9:57 am 09:57 Sunny 43 6.1 31 -0.6 63 63 SSW 10 17 30.03 1017 10 16 0.00 0.00
10:57 am 10:57 Sunny 51 10.6 33 0.6 50 50 S 12 19 30.00 1016 10 16 0.00 0.00
11:57 am 11:57 Sunny 57 13.9 35 1.7 44 44 SSW 13 20 29.96 1015 10 16 0.00 0.00
12:57 pm 12:57 Sunny 61 16.1 35 1.7 38 38 SSW 20 31 29.91 1013 10 16 0.00 0.00
1:57 pm 13:57 Sunny 62 16.7 35 1.7 37 37 S 17 28 29.88 1012 10 16 0.00 0.00
2:57 pm 14:57 Sunny 62 16.7 36 2.2 38 38 S 20 31 29.84 1011 10 16 0.00 0.00
3:57 pm 15:57 Sunny 61 16.1 38 3.3 43 43 S 14 22 29.84 1010 10 16 0.00 0.00
4:57 pm 16:57 Sunny 55 12.8 38 3.3 53 53 SE 10 17 29.82 1010 10 16 0.00 0.00
5:57 pm 17:57 Clear 47 8.3 36 2.2 66 66 SE 7 11 29.81 1010 10 16 0.00 0.00
6:57 pm 18:57 Clear 50 10 39 3.9 66 66 S 16 26 29.78 1009 10 16 0.00 0.00
7:57 pm 19:57 Clear 47 8.3 39 3.9 74 74 S 14 22 29.77 1008 10 16 0.00 0.00
8:57 pm 20:57 Clear 48 8.9 40 4.4 74 74 S 13 20 29.74 1007 10 16 0.00 0.00
9:57 pm 21:57 Clear 48 8.9 39 3.9 71 71 S 17 28 29.70 1006 10 16 0.00 0.00
10:57 pm 22:57 Clear 48 8.9 39 3.9 71 71 S 20 31 29.67 1005 10 16 0.00 0.00
11:57 pm 23:57 Clear 47 8.3 40 4.4 77 77 S 15 24 29.63 1004 10 16 0.00 0.00

Powered by AerisWeather